contact:dominique.lefevre@mio.osupytheas.fr, maurice.libes@osupytheas.fr, didier.mallarino@osupytheas.fr
Project:EMSO http://www.emso-fr.org/EMSO-France
Depth: 2436.0 m
Title:EMSO Ligure Ouest : Data MII capteur AQUADOPP
Date,Latitude,Longitude,X_East,Y_North,Z_Up,Amplitude_X,Amplitude_Y,Amplitude_Z,Batterie,SoundSpeed,Heading,Pitch,Roll,Pressure,TIS,Speed,Direction
, degrees North, degrees East, m.s-1, m.s-1,m.s-1, 1, 1, 1, Volt, m.s-1, degree, degree, degree, dbar, degree_C, m.s-1, degree
2023-08-22T00:04:03,42.805,6.029,-0.017,-0.003,-0.039,105.0,103.0,101.0,13.4,1505.2,328.8,-0.8,1.8,2471.508,13.29,0.017,260.0
2023-08-22T00:07:03,42.805,6.029,-0.007,0.004,-0.023,103.0,103.0,101.0,13.4,1505.2,334.2,-0.7,1.8,2471.493,13.29,0.008,299.7
2023-08-22T00:10:03,42.805,6.029,-0.016,-0.018,-0.029,104.0,103.0,104.0,13.4,1505.2,330.2,-0.8,1.8,2471.545,13.29,0.024,221.6
2023-08-22T00:13:03,42.805,6.029,0.0,-0.01,0.005,103.0,103.0,102.0,13.4,1505.2,349.3,-0.7,1.8,2471.528,13.29,0.01,180.0
2023-08-22T00:16:03,42.805,6.029,0.0,-0.026,-0.036,103.0,104.0,101.0,13.3,1505.2,333.4,-0.8,1.8,2471.516,13.29,0.026,180.0
2023-08-22T00:19:03,42.805,6.029,-0.008,-0.023,-0.041,104.0,102.0,102.0,13.4,1505.2,350.1,-0.8,1.8,2471.526,13.29,0.024,199.2
2023-08-22T00:22:03,42.805,6.029,-0.024,-0.018,-0.011,104.0,103.0,102.0,13.3,1505.2,328.8,-0.8,1.8,2471.49,13.29,0.03,233.1
2023-08-22T00:25:03,42.805,6.029,-0.002,-0.004,-0.018,104.0,103.0,102.0,13.4,1505.2,336.2,-0.8,1.8,2471.483,13.29,0.004,206.6
2023-08-22T00:28:03,42.805,6.029,-0.025,-0.004,-0.025,104.0,103.0,102.0,13.3,1505.2,344.9,-0.8,1.8,2471.523,13.29,0.025,260.9
2023-08-22T00:31:03,42.805,6.029,-0.009,-0.011,-0.013,104.0,104.0,102.0,13.4,1505.2,336.1,-0.7,1.8,2471.46,13.29,0.014,219.3
2023-08-22T00:34:03,42.805,6.029,-0.008,0.0,-0.029,103.0,103.0,103.0,13.3,1505.2,352.3,-0.8,1.8,2471.476,13.29,0.008,270.0
2023-08-22T00:37:03,42.805,6.029,-0.001,0.011,0.017,105.0,103.0,101.0,13.4,1505.2,327.8,-0.7,1.8,2471.45,13.29,0.011,354.8
2023-08-22T00:40:03,42.805,6.029,-0.004,-0.003,0.013,103.0,103.0,101.0,13.4,1505.2,337.0,-0.8,1.8,2471.513,13.29,0.005,233.1
2023-08-22T00:43:03,42.805,6.029,-0.019,0.002,-0.024,104.0,104.0,101.0,13.4,1505.2,331.2,-0.8,1.8,2471.48,13.29,0.019,276.0
2023-08-22T00:46:03,42.805,6.029,-0.03,-0.007,-0.033,104.0,103.0,102.0,13.4,1505.2,336.3,-0.8,1.8,2471.429,13.29,0.03,256.9
2023-08-22T00:49:03,42.805,6.029,-0.008,-0.029,-0.039,103.0,103.0,102.0,13.3,1505.2,331.4,-0.8,1.8,2471.494,13.29,0.03,195.4
2023-08-22T00:52:03,42.805,6.029,-0.001,0.002,-0.009,105.0,103.0,101.0,13.3,1505.2,336.9,-0.7,1.8,2471.476,13.29,0.002,333.4
2023-08-22T00:55:03,42.805,6.029,-0.027,-0.005,-0.021,104.0,102.0,102.0,13.4,1505.2,321.0,-0.8,1.8,2471.424,13.29,0.027,259.5
2023-08-22T00:58:03,42.805,6.029,-0.012,0.015,-0.018,104.0,104.0,102.0,13.4,1505.2,330.7,-0.8,1.8,2471.45,13.29,0.019,321.3
2023-08-22T01:04:03,42.805,6.029,-0.032,0.007,-0.037,105.0,104.0,102.0,13.4,1505.2,332.4,-0.8,1.8,2471.516,13.29,0.032,282.3
2023-08-22T01:07:03,42.805,6.029,-0.014,0.005,-0.039,104.0,104.0,101.0,13.4,1505.2,330.9,-0.7,1.8,2471.513,13.29,0.014,289.6
2023-08-22T01:10:03,42.805,6.029,-0.013,0.001,-0.033,103.0,102.0,102.0,13.3,1505.2,329.3,-0.8,1.8,2471.483,13.29,0.013,274.4
2023-08-22T01:13:03,42.805,6.029,-0.034,0.006,-0.022,103.0,102.0,102.0,13.4,1505.2,322.9,-0.8,1.8,2471.463,13.29,0.034,280.0
2023-08-22T01:16:03,42.805,6.029,-0.013,0.0,-0.043,105.0,103.0,102.0,13.3,1505.2,340.8,-0.8,1.8,2471.487,13.29,0.013,270.0
2023-08-22T01:19:03,42.805,6.029,-0.017,0.015,-0.033,103.0,105.0,103.0,13.4,1505.2,349.1,-0.8,1.8,2471.464,13.29,0.022,311.4
2023-08-22T01:22:02,42.805,6.029,-0.005,-0.009,-0.019,104.0,104.0,101.0,13.4,1505.2,320.3,-0.7,1.8,2471.467,13.29,0.01,209.1
2023-08-22T01:25:03,42.805,6.029,-0.024,0.012,-0.02,104.0,104.0,102.0,13.4,1505.2,340.9,-0.8,1.8,2471.49,13.29,0.026,296.6
2023-08-22T01:28:03,42.805,6.029,-0.01,0.014,0.002,104.0,104.0,102.0,13.4,1505.2,327.9,-0.7,1.8,2471.448,13.29,0.017,324.5
2023-08-22T01:31:03,42.805,6.029,-0.012,0.008,-0.019,104.0,103.0,102.0,13.4,1505.2,344.9,-0.8,1.8,2471.442,13.29,0.014,303.7
2023-08-22T01:34:03,42.805,6.029,-0.005,0.007,0.015,103.0,104.0,102.0,13.4,1505.2,331.5,-0.8,1.8,2471.437,13.29,0.008,324.5
2023-08-22T01:37:03,42.805,6.029,-0.027,0.003,0.0,104.0,103.0,101.0,13.4,1505.2,329.4,-0.8,1.9,2471.469,13.29,0.027,276.3
2023-08-22T01:40:03,42.805,6.029,-0.018,0.001,-0.006,104.0,103.0,101.0,13.3,1505.2,344.9,-0.8,1.8,2471.424,13.29,0.018,273.2
2023-08-22T01:43:03,42.805,6.029,-0.004,0.003,-0.031,102.0,104.0,104.0,13.4,1505.2,327.8,-0.8,1.8,2471.456,13.29,0.005,306.9
2023-08-22T01:46:03,42.805,6.029,-0.014,0.009,-0.016,104.0,104.0,102.0,13.4,1505.2,351.5,-0.8,1.8,2471.424,13.29,0.016,302.7
2023-08-22T01:49:03,42.805,6.029,-0.027,0.006,-0.025,103.0,104.0,102.0,13.4,1505.2,342.8,-0.8,1.8,2471.432,13.29,0.027,282.5
2023-08-22T01:52:03,42.805,6.029,-0.001,-0.005,-0.037,104.0,104.0,102.0,13.3,1505.2,350.5,-0.7,1.8,2471.466,13.29,0.005,191.3
2023-08-22T01:55:03,42.805,6.029,-0.009,0.012,-0.021,106.0,104.0,102.0,13.4,1505.2,330.7,-0.7,1.8,2471.44,13.29,0.015,323.1
2023-08-22T01:58:03,42.805,6.029,-0.008,-0.014,-0.015,104.0,104.0,101.0,13.4,1505.2,353.2,-0.8,1.8,2471.414,13.29,0.016,209.7
2023-08-22T02:04:03,42.805,6.029,-0.008,0.013,-0.014,104.0,103.0,101.0,13.4,1505.2,327.6,-0.8,1.8,2471.467,13.29,0.015,328.4
2023-08-22T02:07:03,42.805,6.029,-0.024,0.004,-0.021,104.0,103.0,102.0,13.3,1505.2,319.7,-0.7,1.8,2471.463,13.29,0.024,279.5
2023-08-22T02:10:03,42.805,6.029,-0.005,-0.007,-0.028,104.0,104.0,101.0,13.3,1505.2,328.8,-0.8,1.8,2471.499,13.29,0.008,215.5
2023-08-22T02:13:03,42.805,6.029,-0.016,-0.003,-0.042,104.0,103.0,101.0,13.4,1505.2,343.1,-0.7,1.8,2471.467,13.29,0.016,259.4
2023-08-22T02:16:03,42.805,6.029,-0.027,0.006,-0.009,102.0,105.0,102.0,13.3,1505.2,339.3,-0.8,1.8,2471.431,13.29,0.027,282.5
2023-08-22T02:19:03,42.805,6.029,-0.017,-0.015,-0.038,104.0,103.0,101.0,13.3,1505.2,350.7,-0.8,1.8,2471.433,13.29,0.022,228.6
2023-08-22T02:22:03,42.805,6.029,-0.014,0.007,-0.001,104.0,103.0,102.0,13.4,1505.2,332.3,-0.8,1.8,2471.428,13.29,0.015,296.6
2023-08-22T02:25:03,42.805,6.029,-0.018,-0.008,-0.044,103.0,103.0,101.0,13.4,1505.2,346.5,-0.8,1.8,2471.404,13.29,0.019,246.0
2023-08-22T02:28:03,42.805,6.029,-0.011,0.022,-0.02,104.0,103.0,101.0,13.4,1505.2,329.8,-0.8,1.8,2471.395,13.29,0.024,333.4
2023-08-22T02:31:03,42.805,6.029,-0.018,0.012,-0.052,103.0,104.0,101.0,13.4,1505.2,350.3,-0.8,1.8,2471.417,13.29,0.021,303.7
2023-08-22T02:34:03,42.805,6.029,-0.003,0.006,-0.016,103.0,104.0,101.0,13.4,1505.2,325.8,-0.8,1.8,2471.413,13.29,0.006,333.4
2023-08-22T02:37:03,42.805,6.029,0.0,-0.014,-0.046,104.0,104.0,101.0,13.3,1505.2,331.6,-0.8,1.8,2471.408,13.29,0.014,180.0
2023-08-22T02:40:03,42.805,6.029,-0.005,0.008,-0.014,104.0,104.0,104.0,13.3,1505.2,328.2,-0.8,1.8,2471.433,13.29,0.009,328.0
2023-08-22T02:43:03,42.805,6.029,-0.008,0.017,-0.007,104.0,103.0,101.0,13.3,1505.2,344.2,-0.8,1.8,2471.422,13.29,0.018,334.8
2023-08-22T02:46:03,42.805,6.029,-0.014,0.015,-0.023,104.0,103.0,102.0,13.4,1505.2,350.5,-0.8,1.8,2471.405,13.29,0.02,317.0
2023-08-22T02:49:03,42.805,6.029,-0.033,0.009,-0.029,104.0,104.0,101.0,13.4,1505.2,332.8,-0.8,1.8,2471.425,13.29,0.034,285.3
2023-08-22T02:52:03,42.805,6.029,-0.018,0.044,-0.006,104.0,102.0,102.0,13.4,1505.2,351.5,-0.8,1.8,2471.404,13.29,0.047,337.8
2023-08-22T02:55:03,42.805,6.029,-0.015,0.029,-0.007,105.0,103.0,101.0,13.4,1505.2,327.5,-0.8,1.8,2471.442,13.29,0.032,332.6
2023-08-22T02:58:03,42.805,6.029,-0.011,-0.007,-0.031,103.0,103.0,102.0,13.3,1505.2,338.4,-0.7,1.8,2471.373,13.29,0.013,237.5
2023-08-22T03:04:03,42.805,6.029,-0.021,0.004,-0.022,103.0,103.0,101.0,13.3,1505.2,332.4,-0.7,1.8,2471.423,13.29,0.021,280.8
2023-08-22T03:07:03,42.805,6.029,-0.031,0.017,-0.012,104.0,104.0,100.0,13.4,1505.2,323.9,-0.7,1.8,2471.45,13.29,0.035,298.7
2023-08-22T03:10:03,42.805,6.029,-0.01,0.017,-0.021,103.0,102.0,102.0,13.4,1505.2,338.4,-0.8,1.9,2471.414,13.29,0.019,329.5
2023-08-22T03:13:03,42.805,6.029,-0.011,0.009,-0.038,104.0,103.0,101.0,13.4,1505.2,331.9,-0.8,1.8,2471.388,13.29,0.014,309.3
2023-08-22T03:16:03,42.805,6.029,-0.004,0.003,-0.029,103.0,103.0,101.0,13.4,1505.2,350.9,-0.7,1.8,2471.367,13.29,0.005,306.9
2023-08-22T03:19:03,42.805,6.029,-0.019,0.012,-0.027,103.0,104.0,101.0,13.4,1505.2,340.0,-0.8,1.8,2471.404,13.29,0.022,302.3
2023-08-22T03:22:03,42.805,6.029,-0.014,0.004,0.002,104.0,102.0,103.0,13.3,1505.2,354.2,-0.8,1.8,2471.421,13.29,0.014,285.9
2023-08-22T03:25:03,42.805,6.029,-0.029,0.003,-0.028,102.0,103.0,102.0,13.3,1505.2,344.0,-0.8,1.8,2471.407,13.29,0.029,275.9
2023-08-22T03:28:03,42.805,6.029,-0.002,0.003,-0.031,104.0,103.0,101.0,13.4,1505.2,341.2,-0.8,1.9,2471.418,13.29,0.003,326.3
2023-08-22T03:31:03,42.805,6.029,-0.003,0.027,-0.027,104.0,104.0,102.0,13.4,1505.2,325.0,-0.8,1.8,2471.374,13.29,0.027,353.7
2023-08-22T03:34:03,42.805,6.029,-0.021,-0.015,-0.033,104.0,104.0,101.0,13.4,1505.2,336.5,-0.7,1.8,2471.383,13.29,0.025,234.5
2023-08-22T03:37:03,42.805,6.029,-0.003,-0.002,0.0,103.0,103.0,102.0,13.4,1505.2,335.2,-0.7,1.8,2471.381,13.29,0.003,236.3
2023-08-22T03:40:03,42.805,6.029,-0.004,-0.001,-0.028,103.0,105.0,102.0,13.4,1505.2,350.7,-0.8,1.8,2471.379,13.29,0.004,256.0
2023-08-22T03:43:03,42.805,6.029,-0.008,0.003,0.011,104.0,103.0,101.0,13.4,1505.2,324.3,-0.8,1.8,2471.42,13.29,0.008,290.6
2023-08-22T03:46:03,42.805,6.029,-0.022,-0.005,-0.035,103.0,102.0,103.0,13.4,1505.2,330.7,-0.8,1.8,2471.38,13.29,0.022,257.2
2023-08-22T03:49:03,42.805,6.029,0.011,0.012,0.01,102.0,104.0,101.0,13.3,1505.2,341.9,-0.8,1.8,2471.399,13.29,0.016,42.5
2023-08-22T03:52:03,42.805,6.029,-0.007,0.021,-0.009,103.0,104.0,101.0,13.3,1505.2,332.5,-0.7,1.8,2471.38,13.29,0.022,341.6
2023-08-22T03:55:03,42.805,6.029,0.004,0.007,0.002,105.0,103.0,101.0,13.3,1505.2,345.7,-0.8,1.8,2471.402,13.29,0.008,29.7
2023-08-22T03:58:03,42.805,6.029,-0.015,0.02,-0.017,103.0,103.0,102.0,13.4,1505.2,352.1,-0.8,1.8,2471.376,13.29,0.025,323.1
2023-08-22T04:04:03,42.805,6.029,-0.02,0.01,0.005,105.0,103.0,101.0,13.4,1505.2,327.9,-0.7,1.8,2471.421,13.29,0.022,296.6
2023-08-22T04:07:03,42.805,6.029,0.011,-0.007,0.01,104.0,103.0,101.0,13.4,1505.2,324.5,-0.8,1.8,2471.414,13.29,0.013,122.5
2023-08-22T04:10:03,42.805,6.029,-0.012,0.01,-0.012,104.0,103.0,102.0,13.3,1505.2,327.7,-0.7,1.8,2471.441,13.29,0.015,309.8
2023-08-22T04:13:03,42.805,6.029,-0.005,-0.009,-0.023,104.0,102.0,102.0,13.4,1505.2,322.5,-0.8,1.8,2471.418,13.29,0.01,209.1
2023-08-22T04:16:03,42.805,6.029,-0.01,0.014,-0.011,103.0,104.0,102.0,13.4,1505.2,331.5,-0.7,1.8,2471.374,13.29,0.017,324.5
2023-08-22T04:19:03,42.805,6.029,-0.007,0.011,-0.017,104.0,104.0,102.0,13.4,1505.2,323.3,-0.8,1.8,2471.403,13.29,0.013,327.5
2023-08-22T04:22:03,42.805,6.029,0.004,0.005,0.011,104.0,104.0,102.0,13.4,1505.2,330.3,-0.8,1.8,2471.382,13.29,0.006,38.7
2023-08-22T04:25:03,42.805,6.029,0.003,0.034,-0.023,103.0,104.0,102.0,13.3,1505.2,348.9,-0.8,1.8,2471.399,13.29,0.034,5.0
2023-08-22T04:28:03,42.805,6.029,-0.032,0.012,-0.043,103.0,105.0,101.0,13.3,1505.2,329.5,-0.8,1.8,2471.39,13.29,0.034,290.6
2023-08-22T04:31:03,42.805,6.029,-0.012,0.006,-0.01,105.0,103.0,102.0,13.3,1505.2,327.9,-0.8,1.8,2471.368,13.29,0.013,296.6
2023-08-22T04:34:03,42.805,6.029,0.003,0.013,-0.016,104.0,103.0,102.0,13.4,1505.2,326.0,-0.8,1.8,2471.368,13.29,0.013,13.0
2023-08-22T04:37:03,42.805,6.029,-0.008,0.004,-0.027,104.0,103.0,102.0,13.4,1505.2,332.4,-0.7,1.8,2471.339,13.29,0.008,296.6
2023-08-22T04:40:03,42.805,6.029,-0.01,0.014,-0.008,104.0,104.0,102.0,13.4,1505.2,328.8,-0.8,1.8,2471.387,13.29,0.017,324.5
2023-08-22T04:43:03,42.805,6.029,-0.003,0.008,0.005,104.0,104.0,101.0,13.4,1505.2,328.4,-0.7,1.8,2471.363,13.29,0.008,339.4
2023-08-22T04:46:03,42.805,6.029,-0.001,0.008,-0.016,104.0,103.0,102.0,13.4,1505.2,348.2,-0.7,1.8,2471.382,13.29,0.008,352.9
2023-08-22T04:49:03,42.805,6.029,-0.002,0.011,-0.021,105.0,103.0,102.0,13.3,1505.2,332.9,-0.8,1.8,2471.387,13.29,0.011,349.7
2023-08-22T04:52:03,42.805,6.029,-0.02,0.029,-0.026,103.0,104.0,102.0,13.3,1505.2,350.7,-0.7,1.8,2471.349,13.29,0.035,325.4
2023-08-22T04:55:03,42.805,6.029,-0.029,0.0,-0.008,102.0,103.0,101.0,13.4,1505.2,324.5,-0.7,1.8,2471.402,13.29,0.028,270.0
2023-08-22T04:58:03,42.805,6.029,-0.011,-0.004,-0.001,105.0,103.0,101.0,13.3,1505.2,320.4,-0.7,1.8,2471.35,13.29,0.011,250.0
2023-08-22T05:04:03,42.805,6.029,-0.022,-0.009,-0.009,104.0,107.0,102.0,13.4,1505.2,323.1,-0.8,1.8,2471.434,13.29,0.023,247.8
2023-08-22T05:07:03,42.805,6.029,-0.003,0.021,-0.017,103.0,104.0,103.0,13.4,1505.2,331.9,-0.8,1.8,2471.392,13.29,0.021,351.9
2023-08-22T05:10:03,42.805,6.029,0.001,0.0,-0.029,104.0,103.0,101.0,13.3,1505.2,325.3,-0.8,1.8,2471.389,13.29,0.001,90.0
2023-08-22T05:13:03,42.805,6.029,-0.006,0.004,0.004,104.0,103.0,102.0,13.4,1505.2,339.4,-0.8,1.8,2471.409,13.29,0.007,303.7
2023-08-22T05:16:03,42.805,6.029,-0.031,-0.004,-0.044,103.0,103.0,102.0,13.4,1505.2,331.3,-0.7,1.8,2471.394,13.29,0.031,262.7
2023-08-22T05:19:03,42.805,6.029,-0.018,0.028,0.004,104.0,105.0,101.0,13.4,1505.2,340.7,-0.8,1.8,2471.396,13.29,0.033,327.3
2023-08-22T05:22:03,42.805,6.029,-0.001,0.021,-0.028,103.0,104.0,103.0,13.4,1505.2,352.1,-0.8,1.8,2471.387,13.29,0.021,357.3
2023-08-22T05:25:03,42.805,6.029,0.0,-0.004,-0.032,103.0,103.0,101.0,13.4,1505.2,342.3,-0.8,1.8,2471.389,13.29,0.004,180.0
2023-08-22T05:28:03,42.805,6.029,-0.008,0.015,-0.024,102.0,104.0,103.0,13.4,1505.2,351.7,-0.8,1.8,2471.399,13.29,0.017,331.9
2023-08-22T05:31:03,42.805,6.029,-0.023,0.026,-0.006,104.0,104.0,102.0,13.4,1505.2,343.2,-0.8,1.8,2471.378,13.29,0.034,318.5
2023-08-22T05:34:03,42.805,6.029,-0.016,0.028,0.002,104.0,104.0,101.0,13.4,1505.2,326.0,-0.8,1.8,2471.392,13.29,0.032,330.3
2023-08-22T05:37:03,42.805,6.029,-0.027,-0.005,-0.013,103.0,102.0,103.0,13.4,1505.2,329.4,-0.7,1.8,2471.381,13.29,0.027,259.5
2023-08-22T05:40:03,42.805,6.029,-0.008,0.01,-0.021,103.0,104.0,102.0,13.4,1505.2,331.3,-0.8,1.8,2471.386,13.29,0.012,321.3
2023-08-22T05:43:03,42.805,6.029,-0.01,0.025,-0.013,104.0,102.0,102.0,13.4,1505.2,353.2,-0.8,1.8,2471.345,13.29,0.026,338.2
2023-08-22T05:46:03,42.805,6.029,-0.013,0.013,0.007,103.0,103.0,101.0,13.4,1505.2,343.0,-0.7,1.8,2471.369,13.29,0.018,315.0
2023-08-22T05:49:03,42.805,6.029,0.003,0.007,0.008,103.0,104.0,102.0,13.3,1505.2,328.7,-0.8,1.8,2471.368,13.29,0.007,23.2
2023-08-22T05:52:03,42.805,6.029,-0.007,0.0,-0.032,105.0,104.0,102.0,13.4,1505.2,326.8,-0.8,1.8,2471.369,13.29,0.007,270.0
2023-08-22T05:55:03,42.805,6.029,-0.027,-0.002,-0.025,103.0,104.0,102.0,13.3,1505.2,323.9,-0.8,1.8,2471.373,13.29,0.027,265.8
2023-08-22T05:58:03,42.805,6.029,-0.008,0.015,-0.025,104.0,104.0,102.0,13.4,1505.2,350.9,-0.8,1.8,2471.338,13.29,0.017,331.9
2023-08-22T06:04:03,42.805,6.029,-0.016,-0.007,-0.006,103.0,104.0,102.0,13.4,1505.2,350.5,-0.8,1.8,2471.428,13.29,0.017,246.4
2023-08-22T06:07:03,42.805,6.029,-0.004,0.001,-0.012,103.0,103.0,102.0,13.4,1505.2,329.7,-0.7,1.8,2471.415,13.29,0.004,284.0
2023-08-22T06:10:03,42.805,6.029,-0.002,0.0,0.0,102.0,104.0,103.0,13.3,1505.2,347.9,-0.8,1.8,2471.431,13.29,0.002,270.0
2023-08-22T06:13:03,42.805,6.029,-0.01,0.009,0.043,104.0,103.0,102.0,13.3,1505.2,322.0,-0.8,1.8,2471.382,13.29,0.013,312.0
2023-08-22T06:16:03,42.805,6.029,0.019,0.0,-0.01,103.0,104.0,101.0,13.4,1505.2,348.4,-0.8,1.8,2471.383,13.29,0.019,90.0
2023-08-22T06:19:03,42.805,6.029,0.008,0.022,-0.006,103.0,104.0,101.0,13.4,1505.2,332.9,-0.8,1.8,2471.432,13.29,0.023,20.0
2023-08-22T06:22:03,42.805,6.029,-0.031,0.003,-0.023,103.0,104.0,102.0,13.3,1505.2,322.7,-0.8,1.8,2471.387,13.29,0.031,275.5
2023-08-22T06:25:03,42.805,6.029,0.0,0.017,0.007,103.0,103.0,101.0,13.4,1505.2,338.8,-0.8,1.8,2471.428,13.29,0.017,0.0
2023-08-22T06:28:03,42.805,6.029,-0.007,-0.001,-0.002,103.0,103.0,102.0,13.4,1505.2,325.4,-0.8,1.8,2471.405,13.29,0.007,261.9
2023-08-22T06:31:03,42.805,6.029,0.023,0.025,0.013,103.0,103.0,102.0,13.4,1505.2,344.7,-0.8,1.8,2471.387,13.29,0.033,42.6
2023-08-22T06:34:03,42.805,6.029,-0.017,0.0,-0.01,104.0,102.0,102.0,13.3,1505.2,327.1,-0.8,1.8,2471.406,13.29,0.017,270.0
2023-08-22T06:37:03,42.805,6.029,0.005,0.01,0.002,103.0,103.0,101.0,13.4,1505.2,325.1,-0.8,1.8,2471.414,13.29,0.011,26.6
2023-08-22T06:40:03,42.805,6.029,-0.007,0.0,-0.013,103.0,103.0,102.0,13.4,1505.2,336.5,-0.8,1.8,2471.434,13.29,0.007,270.0
2023-08-22T06:43:03,42.805,6.029,-0.009,0.012,0.019,103.0,103.0,101.0,13.4,1505.2,331.1,-0.8,1.8,2471.397,13.29,0.015,323.1
2023-08-22T06:46:03,42.805,6.029,-0.019,-0.003,-0.019,104.0,103.0,102.0,13.3,1505.2,320.3,-0.8,1.8,2471.39,13.29,0.019,261.0
2023-08-22T06:49:03,42.805,6.029,-0.001,-0.003,-0.03,103.0,103.0,102.0,13.4,1505.2,329.7,-0.7,1.8,2471.359,13.29,0.003,198.4
2023-08-22T06:52:03,42.805,6.029,-0.002,0.009,0.005,104.0,105.0,101.0,13.3,1505.2,320.3,-0.8,1.8,2471.403,13.29,0.009,347.5
2023-08-22T06:55:03,42.805,6.029,-0.01,0.008,0.004,103.0,104.0,101.0,13.4,1505.2,330.6,-0.8,1.8,2471.393,13.29,0.012,308.7
2023-08-22T06:58:03,42.805,6.029,0.019,0.021,0.02,103.0,104.0,102.0,13.4,1505.2,334.2,-0.8,1.8,2471.386,13.29,0.028,42.1
2023-08-22T07:04:03,42.805,6.029,0.018,0.029,-0.022,103.0,103.0,102.0,13.4,1505.2,343.7,-0.7,1.8,2471.463,13.29,0.034,31.8
2023-08-22T07:07:03,42.805,6.029,0.003,0.009,0.018,104.0,103.0,102.0,13.3,1505.2,334.3,-0.8,1.8,2471.425,13.29,0.009,18.4
2023-08-22T07:10:03,42.805,6.029,-0.004,-0.006,-0.019,102.0,104.0,102.0,13.4,1505.2,323.5,-0.7,1.8,2471.455,13.29,0.007,213.7
2023-08-22T07:13:03,42.805,6.029,-0.012,0.014,-0.012,103.0,103.0,101.0,13.4,1505.2,331.4,-0.7,1.8,2471.407,13.29,0.018,319.4
2023-08-22T07:16:03,42.805,6.029,-0.011,0.02,0.002,104.0,103.0,103.0,13.3,1505.2,328.3,-0.8,1.8,2471.422,13.29,0.022,331.2
2023-08-22T07:19:03,42.805,6.029,0.0,0.002,-0.004,103.0,104.0,102.0,13.4,1505.2,342.6,-0.7,1.8,2471.434,13.29,0.002,0.0
2023-08-22T07:22:03,42.805,6.029,0.018,0.013,-0.006,104.0,103.0,101.0,13.3,1505.2,331.8,-0.8,1.8,2471.406,13.29,0.022,54.2
2023-08-22T07:25:03,42.805,6.029,-0.027,0.007,-0.002,104.0,103.0,102.0,13.4,1505.2,325.8,-0.8,1.8,2471.417,13.29,0.027,284.5
2023-08-22T07:28:03,42.805,6.029,-0.019,0.007,0.004,104.0,104.0,103.0,13.4,1505.2,329.7,-0.8,1.8,2471.437,13.29,0.02,290.2
2023-08-22T07:31:03,42.805,6.029,-0.01,0.008,0.0,102.0,104.0,102.0,13.3,1505.2,338.3,-0.8,1.8,2471.43,13.29,0.012,308.7
2023-08-22T07:34:03,42.805,6.029,-0.008,0.008,-0.02,103.0,103.0,102.0,13.4,1505.2,329.7,-0.7,1.8,2471.401,13.29,0.011,315.0
2023-08-22T07:37:03,42.805,6.029,0.009,0.006,-0.021,104.0,103.0,101.0,13.4,1505.2,350.1,-0.8,1.8,2471.425,13.29,0.01,56.3
2023-08-22T07:40:03,42.805,6.029,0.011,0.01,0.008,106.0,103.0,103.0,13.4,1505.2,348.4,-0.8,1.8,2471.437,13.29,0.014,47.7
2023-08-22T07:43:03,42.805,6.029,0.005,0.0,-0.01,103.0,103.0,102.0,13.3,1505.2,332.1,-0.7,1.8,2471.435,13.29,0.005,90.0
2023-08-22T07:46:03,42.805,6.029,-0.004,0.021,-0.007,103.0,102.0,102.0,13.4,1505.2,349.6,-0.8,1.8,2471.432,13.29,0.021,349.2
2023-08-22T07:49:03,42.805,6.029,-0.001,-0.005,-0.009,103.0,105.0,102.0,13.4,1505.2,326.6,-0.8,1.8,2471.433,13.29,0.005,191.3
2023-08-22T07:52:03,42.805,6.029,0.002,0.013,-0.004,104.0,103.0,101.0,13.4,1505.2,331.6,-0.8,1.8,2471.426,13.29,0.013,8.7
2023-08-22T07:55:03,42.805,6.029,0.004,0.017,-0.02,104.0,104.0,101.0,13.4,1505.2,331.7,-0.8,1.8,2471.445,13.29,0.017,13.2
2023-08-22T07:58:03,42.805,6.029,-0.005,0.007,0.005,104.0,104.0,101.0,13.4,1505.2,351.2,-0.7,1.8,2471.442,13.29,0.008,324.5
2023-08-22T08:04:03,42.805,6.029,0.011,0.0,-0.012,104.0,104.0,101.0,13.4,1505.2,349.5,-0.8,1.8,2471.513,13.29,0.011,90.0
2023-08-22T08:07:03,42.805,6.029,-0.005,0.037,0.014,103.0,104.0,102.0,13.3,1505.2,326.8,-0.8,1.8,2471.473,13.29,0.037,352.3
2023-08-22T08:10:03,42.805,6.029,0.025,0.008,0.006,105.0,104.0,101.0,13.3,1505.2,349.3,-0.8,1.8,2471.471,13.29,0.026,72.3
2023-08-22T08:13:03,42.805,6.029,-0.021,0.005,-0.023,102.0,104.0,102.0,13.3,1505.2,323.5,-0.8,1.8,2471.487,13.29,0.021,283.4
2023-08-22T08:16:03,42.805,6.029,0.01,0.019,0.006,103.0,104.0,101.0,13.4,1505.2,347.7,-0.8,1.8,2471.485,13.29,0.021,27.8
2023-08-22T08:19:03,42.805,6.029,-0.015,0.032,-0.015,104.0,103.0,101.0,13.3,1505.2,323.1,-0.8,1.8,2471.483,13.29,0.035,334.9
2023-08-22T08:22:03,42.805,6.029,-0.001,0.006,0.023,105.0,104.0,102.0,13.4,1505.2,329.2,-0.8,1.8,2471.494,13.29,0.006,350.5
2023-08-22T08:25:03,42.805,6.029,-0.003,0.02,-0.013,104.0,104.0,102.0,13.4,1505.2,324.3,-0.8,1.8,2471.436,13.29,0.02,351.5
2023-08-22T08:28:03,42.805,6.029,0.008,0.016,0.026,104.0,104.0,101.0,13.3,1505.2,340.4,-0.8,1.8,2471.497,13.29,0.017,26.6
2023-08-22T08:31:03,42.805,6.029,-0.019,0.04,-0.012,103.0,104.0,102.0,13.3,1505.2,326.3,-0.8,1.8,2471.473,13.29,0.044,334.6
2023-08-22T08:34:03,42.805,6.029,0.005,0.0,-0.006,104.0,104.0,101.0,13.3,1505.2,353.0,-0.8,1.8,2471.52,13.29,0.005,90.0
2023-08-22T08:37:03,42.805,6.029,-0.019,0.044,-0.026,104.0,103.0,102.0,13.4,1505.2,339.5,-0.8,1.8,2471.466,13.29,0.047,336.6
2023-08-22T08:40:03,42.805,6.029,0.011,0.008,0.018,104.0,104.0,102.0,13.3,1505.2,349.7,-0.8,1.8,2471.5,13.29,0.013,54.0
2023-08-22T08:43:03,42.805,6.029,0.014,0.007,-0.012,104.0,104.0,102.0,13.3,1505.2,340.0,-0.7,1.8,2471.457,13.29,0.015,63.4
2023-08-22T08:46:03,42.805,6.029,0.007,0.004,-0.021,103.0,103.0,103.0,13.3,1505.2,337.4,-0.8,1.8,2471.477,13.29,0.008,60.3
2023-08-22T08:49:03,42.805,6.029,-0.002,0.009,-0.008,104.0,103.0,102.0,13.3,1505.2,329.9,-0.8,1.8,2471.491,13.29,0.009,347.5
2023-08-22T08:52:03,42.805,6.029,0.004,0.035,0.006,105.0,103.0,102.0,13.4,1505.2,328.5,-0.8,1.8,2471.473,13.29,0.035,6.5
2023-08-22T08:55:03,42.805,6.029,-0.001,0.028,0.0,106.0,103.0,102.0,13.4,1505.2,333.4,-0.7,1.8,2471.473,13.29,0.028,358.0
2023-08-22T08:58:03,42.805,6.029,-0.008,0.006,-0.011,104.0,104.0,102.0,13.4,1505.2,334.7,-0.8,1.8,2471.521,13.29,0.01,306.9
2023-08-22T09:04:03,42.805,6.029,0.004,0.038,0.0,103.0,103.0,102.0,13.4,1505.2,343.6,-0.8,1.8,2471.547,13.29,0.038,6.0
2023-08-22T09:07:03,42.805,6.029,-0.016,0.012,0.01,104.0,103.0,102.0,13.4,1505.2,340.8,-0.7,1.8,2471.528,13.29,0.02,306.9
2023-08-22T09:10:03,42.805,6.029,0.004,0.015,-0.025,103.0,105.0,102.0,13.4,1505.2,333.9,-0.8,1.8,2471.522,13.29,0.015,14.9
2023-08-22T09:13:03,42.805,6.029,-0.017,0.026,0.005,104.0,104.0,101.0,13.4,1505.2,326.8,-0.7,1.8,2471.496,13.29,0.031,326.8
2023-08-22T09:16:03,42.805,6.029,0.002,0.02,-0.009,104.0,103.0,103.0,13.4,1505.2,333.9,-0.8,1.8,2471.505,13.29,0.02,5.7
2023-08-22T09:19:03,42.805,6.029,-0.018,0.011,-0.008,104.0,104.0,101.0,13.4,1505.2,332.1,-0.8,1.8,2471.511,13.29,0.021,301.4
2023-08-22T09:22:03,42.805,6.029,0.009,0.015,0.0,103.0,102.0,104.0,13.4,1505.2,325.7,-0.8,1.8,2471.476,13.29,0.017,31.0
2023-08-22T09:25:03,42.805,6.029,-0.017,0.018,-0.021,104.0,104.0,101.0,13.3,1505.2,337.0,-0.7,1.8,2471.49,13.29,0.024,316.6
2023-08-22T09:28:03,42.805,6.029,0.006,0.024,0.003,103.0,104.0,102.0,13.4,1505.2,333.8,-0.8,1.8,2471.533,13.29,0.024,14.0
2023-08-22T09:31:03,42.805,6.029,0.009,0.028,0.002,105.0,103.0,102.0,13.4,1505.2,333.9,-0.7,1.8,2471.513,13.29,0.029,17.8
2023-08-22T09:34:03,42.805,6.029,-0.035,0.029,-0.027,104.0,105.0,101.0,13.4,1505.2,330.1,-0.8,1.8,2471.501,13.29,0.045,309.6
2023-08-22T09:37:03,42.805,6.029,-0.003,0.006,0.0,104.0,104.0,101.0,13.4,1505.2,330.1,-0.8,1.8,2471.462,13.29,0.006,333.4
2023-08-22T09:40:03,42.805,6.029,-0.022,0.013,-0.029,103.0,105.0,101.0,13.3,1505.2,331.7,-0.8,1.8,2471.507,13.29,0.025,300.6
2023-08-22T09:43:03,42.805,6.029,-0.008,0.001,0.022,103.0,104.0,103.0,13.4,1505.2,336.1,-0.8,1.8,2471.448,13.29,0.008,277.1
2023-08-22T09:46:03,42.805,6.029,0.007,0.016,-0.008,104.0,104.0,101.0,13.4,1505.2,348.0,-0.7,1.8,2471.48,13.29,0.017,23.6
2023-08-22T09:49:03,42.805,6.029,0.005,0.009,-0.016,104.0,104.0,102.0,13.4,1505.2,338.0,-0.8,1.8,2471.498,13.29,0.01,29.1
2023-08-22T09:52:03,42.805,6.029,0.008,0.007,-0.006,104.0,103.0,102.0,13.4,1505.2,344.8,-0.8,1.8,2471.517,13.29,0.01,48.8
2023-08-22T09:55:03,42.805,6.029,0.005,-0.001,0.01,104.0,103.0,103.0,13.4,1505.2,350.7,-0.8,1.8,2471.474,13.29,0.005,101.3